[[{"header":{"parameterUnit":"m.s-1","parameterCategory":1,"la1":30.2991,"la2":30.254,"lo1":-89.0895,"lo2":-89.0444,"dy":0.0017,"dx":0.0017,"nx":28,"ny":28,"refTime":"2025-03-24T21:00:00:Z","depth":0,"parameterNumber":2,"parameterNumberName":"U-component_of_WINDS"},"data":[0,0,0,0,0,0,0,0,0,0,0,0,0,0,0,0,0,0,0,0,0,0,0,0,0,0,0,0,0,0,0,0,0,0,0,0,0,0,0,0,0,0,0,0,0,0,0,0,0,0,0,0,0,0,0,0,0,0,-0.1939,-0.1938,0,-0.1775,-0.1773,-0.1771,-0.175,-0.1752,-0.1753,-0.1755,-0.158,-0.1574,-0.1568,0,0,0,0,0,0,0,0,0,0,0,0,0,-0.2229,-0.2223,-0.1939,-0.1937,-0.1935,-0.1776,-0.1773,-0.1771,-0.175,-0.1752,-0.1754,-0.1755,-0.1582,-0.1575,-0.1567,0,0,0,0,0,0,0,0,0,0,0,0,0,-0.2087,-0.2222,-0.194,-0.1906,-0.1901,-0.1776,-0.1773,-0.177,-0.1749,-0.1752,-0.1754,-0.1756,-0.1584,-0.1575,-0.1566,-0.1462,0,0,-0.1538,-0.1534,0,0,0,0,0,0,0,0,-0.2095,-0.2077,-0.1913,-0.1908,-0.1902,-0.1786,-0.1811,-0.1667,-0.1749,-0.1807,-0.1755,-0.1757,-0.1646,-0.1632,-0.1596,-0.1454,-0.1446,-0.1537,-0.1532,-0.1528,-0.1525,0,0,0,0,0,0,0,-0.2105,-0.2084,-0.1874,-0.191,-0.1904,-0.1897,-0.1879,-0.1784,-0.1715,-0.1802,-0.18,-0.1781,-0.1644,-0.1605,-0.1591,-0.1444,-0.1538,-0.1529,-0.1524,-0.152,-0.1206,-0.1204,0,0,0,0,0,0,-0.2122,-0.2092,-0.1879,-0.1869,-0.2007,-0.1889,-0.187,-0.1821,-0.1716,-0.1702,-0.1779,-0.1781,-0.1619,-0.1602,-0.1585,-0.1455,-0.1528,-0.1519,-0.1514,-0.1209,-0.1206,-0.1203,0,0,0,0,0,0,-0.2128,-0.2103,-0.1886,-0.198,-0.1952,-0.1882,-0.1827,-0.1816,-0.1777,-0.1699,-0.1686,-0.1752,-0.162,-0.1598,-0.1493,-0.1448,-0.1515,-0.1507,-0.1213,-0.1208,-0.1204,-0.1194,0,0,0,0,0,0,-0.2137,-0.2106,-0.2067,-0.1979,-0.1947,-0.1798,-0.1824,-0.1811,-0.1762,-0.1762,-0.167,-0.1657,-0.162,-0.1507,-0.1484,-0.1437,-0.15,-0.1216,-0.1211,-0.1206,-0.1198,-0.119,-0.1183,0,0,0,0,0,-0.2147,-0.2069,-0.2065,-0.2039,-0.1897,-0.1796,-0.1777,-0.1738,-0.1759,-0.1718,-0.1668,-0.166,-0.1458,-0.1496,-0.147,-0.142,-0.1219,-0.1212,-0.1206,-0.1201,-0.1192,-0.1184,0,0,0,0,0,0,-0.215,-0.2057,-0.2051,-0.1943,-0.1878,-0.1793,-0.174,-0.1729,-0.1655,-0.1658,-0.1612,-0.1591,-0.1488,-0.1443,-0.1488,-0.1313,-0.134,-0.1328,-0.1345,-0.1335,-0.1328,-0.134,-0.1492,0,0,0,0,0,-0.2139,-0.2067,-0.1988,-0.19,-0.1868,-0.181,-0.1764,-0.174,-0.167,-0.1641,-0.1584,-0.1514,-0.1434,-0.1383,-0.1305,-0.1193,-0.1171,-0.1145,-0.1138,-0.1132,-0.1121,-0.1057,-0.1044,-0.1182,-0.1182,-0.1182,0,0,-0.2114,-0.2054,-0.2011,-0.1899,-0.1846,-0.177,-0.1786,-0.1705,-0.1648,-0.1628,-0.1526,-0.1481,-0.14,-0.129,-0.1239,-0.125,-0.1079,-0.1124,-0.112,-0.1112,-0.1049,-0.1036,-0.1025,-0.1178,-0.1179,-0.1179,0,0,-0.2029,-0.1977,-0.1898,-0.1844,-0.1764,-0.1726,-0.1707,-0.1623,-0.1594,-0.1491,-0.1474,-0.1404,-0.1269,-0.1212,-0.1165,-0.1059,-0.1049,-0.1035,-0.0995,-0.0933,-0.0922,-0.0913,-0.0873,-0.086,-0.1025,-0.1025,-0.1025,0,-0.2006,-0.1893,-0.1857,-0.1777,-0.1728,-0.171,-0.1628,-0.1577,-0.1475,-0.144,-0.1455,-0.1285,-0.1229,-0.1105,-0.108,-0.1043,-0.1018,-0.1044,-0.0927,-0.0917,-0.0907,-0.0869,-0.0854,-0.1024,-0.1024,-0.1024,-0.1025,0,-0.1869,-0.1791,-0.1736,-0.1641,-0.1585,-0.1505,-0.1454,-0.1403,-0.1384,-0.1344,-0.1238,-0.1171,-0.108,-0.1049,-0.1029,-0.0922,-0.0931,-0.0937,-0.0963,-0.0893,-0.0857,-0.0842,-0.1022,-0.1023,-0.1023,-0.1023,0,0,-0.1779,-0.1666,-0.1646,-0.1602,-0.1513,-0.1451,-0.1369,-0.1282,-0.1237,-0.1168,-0.1096,-0.0983,-0.0988,-0.0935,-0.0909,-0.0855,-0.0773,-0.0867,-0.0865,-0.085,-0.0649,-0.0644,-0.0628,-0.0767,-0.0765,-0.0762,-0.0655,0,-0.1682,-0.1538,-0.1503,-0.1378,-0.1304,-0.1287,-0.1215,-0.1151,-0.1112,-0.1042,-0.0998,-0.0918,-0.0932,-0.0899,-0.0845,-0.0795,-0.0732,-0.0803,-0.0698,-0.0694,-0.0717,-0.0609,-0.0602,-0.0505,-0.0641,-0.0639,-0.0637,0,-0.1549,-0.1479,-0.1347,-0.1268,-0.1236,-0.1172,-0.1089,-0.1024,-0.0951,-0.0926,-0.0867,-0.0847,-0.0758,-0.0791,-0.0668,-0.0717,-0.0672,-0.0641,-0.0636,-0.0623,-0.066,-0.059,-0.0473,-0.0458,-0.0614,-0.0616,-0.0618,0,-0.1494,-0.1367,-0.1271,-0.1235,-0.114,-0.1096,-0.1054,-0.0984,-0.0933,-0.086,-0.0827,-0.0744,-0.0698,-0.0634,-0.0591,-0.0619,-0.047,-0.0499,-0.0445,-0.0446,-0.0412,-0.0415,-0.0284,-0.0387,-0.0388,-0.0388,-0.0388,0,-0.1388,-0.1308,-0.1246,-0.1187,-0.1096,-0.1057,-0.0967,-0.0925,-0.0863,-0.0793,-0.0773,-0.0708,-0.0656,-0.0584,-0.055,-0.0452,-0.0432,-0.0407,-0.0399,-0.0408,-0.0411,-0.0376,-0.0381,-0.0384,-0.0385,-0.0386,-0.0386,0,-0.1311,-0.1266,-0.1161,-0.1081,-0.1059,-0.0995,-0.0925,-0.0866,-0.0828,-0.074,-0.0718,-0.0655,-0.0569,-0.0521,-0.0412,-0.0389,-0.0279,-0.0275,-0.0304,-0.03,-0.0248,-0.0253,-0.0088,-0.0064,-0.0186,-0.0185,-0.0184,0,-0.1245,-0.1183,-0.1097,-0.105,-0.1008,-0.0933,-0.0883,-0.0842,-0.0789,-0.0702,-0.0653,-0.0567,-0.0495,-0.0358,-0.0301,-0.0218,-0.021,-0.0158,-0.0197,-0.0208,-0.0207,-0.021,-0.0203,-0.0151,-0.015,-0.0149,-0.0148,0,-0.1132,-0.1113,-0.1042,-0.0963,-0.0903,-0.0838,-0.0774,-0.0737,-0.0685,-0.0626,-0.0539,-0.0484,-0.0374,-0.0287,-0.02,-0.0154,-0.0141,-0.0137,-0.0119,-0.0127,-0.0146,-0.0133,-0.0284,-0.014,-0.0141,-0.0141,-0.0142,-0.0142,-0.1057,-0.1001,-0.0932,-0.0852,-0.08,-0.0741,-0.0682,-0.0636,-0.0564,-0.0472,-0.0452,-0.036,-0.0288,-0.0169,-0.0122,-0.0048,-0.0057,-0.0032,-0.0025,-0.0019,-0.0017,-0.016,-0.0032,-0.0032,-0.0032,-0.0032,-0.0032,0,-0.0941,-0.0897,-0.0825,-0.0736,-0.0674,-0.0671,-0.0599,-0.0546,-0.0466,-0.0402,-0.0332,-0.0231,-0.0148,-0.0086,0.0,0.0048,0.0056,0.0069,0.0068,0.0078,-0.0014,-0.0037,0.0061,0.0061,0.0061,0.0061,0.0061,0.0061,-0.0874,-0.0779,-0.0752,-0.063,-0.0585,-0.0496,-0.0456,-0.04,-0.0348,-0.0238,-0.0169,-0.013,-0.0065,0.0025,0.0103,0.0119,0.0151,0.0164,0.0181,0.0094,0.0084,0.0075,0.0054,0.017,0.017,0.0268,0.0268,0.0269]},{"header":{"parameterUnit":"m.s-1","parameterCategory":1,"la1":30.2991,"la2":30.254,"lo1":-89.0895,"lo2":-89.0444,"dy":0.0017,"dx":0.0017,"nx":28,"ny":28,"refTime":"2025-03-24T21:00:00:Z","depth":0,"parameterNumber":3,"parameterNumberName":"V-component_of_WINDS"},"data":[0,0,0,0,0,0,0,0,0,0,0,0,0,0,0,0,0,0,0,0,0,0,0,0,0,0,0,0,0,0,0,0,0,0,0,0,0,0,0,0,0,0,0,0,0,0,0,0,0,0,0,0,0,0,0,0,0,0,0.1911,0.1912,0,0.197,0.1971,0.1972,0.1865,0.1862,0.1858,0.1855,0.1918,0.1922,0.1927,0,0,0,0,0,0,0,0,0,0,0,0,0,0.1705,0.1709,0.1911,0.1912,0.1912,0.197,0.1971,0.1972,0.1866,0.1862,0.1857,0.1853,0.1916,0.1922,0.1928,0,0,0,0,0,0,0,0,0,0,0,0,0,0.1783,0.1711,0.1911,0.1866,0.1863,0.197,0.1971,0.1972,0.1867,0.1862,0.1856,0.1851,0.1914,0.1921,0.1929,0.2082,0,0,0.1952,0.1955,0,0,0,0,0,0,0,0,0.1778,0.179,0.1872,0.187,0.1866,0.1905,0.1921,0.2009,0.1868,0.1866,0.1855,0.1849,0.1918,0.1925,0.1948,0.2085,0.2088,0.1952,0.1957,0.196,0.1962,0,0,0,0,0,0,0,0.1773,0.1787,0.1934,0.1873,0.187,0.1843,0.1849,0.1938,0.1921,0.1865,0.1858,0.1866,0.1915,0.1941,0.1948,0.2089,0.1952,0.1959,0.1963,0.1966,0.2352,0.2357,0,0,0,0,0,0,0.1773,0.1783,0.1932,0.1936,0.1808,0.1852,0.1857,0.1898,0.192,0.1918,0.1871,0.1861,0.1931,0.194,0.195,0.2129,0.196,0.1967,0.1971,0.2346,0.2353,0.2359,0,0,0,0,0,0,0.1769,0.1788,0.193,0.1858,0.1874,0.1861,0.1907,0.1902,0.1927,0.1924,0.192,0.19,0.1927,0.194,0.2049,0.213,0.197,0.1977,0.234,0.2348,0.2356,0.2489,0,0,0,0,0,0,0.1764,0.1787,0.1845,0.186,0.1878,0.2029,0.1912,0.1907,0.194,0.1928,0.195,0.1949,0.1923,0.2039,0.2057,0.2137,0.1983,0.2332,0.2344,0.2354,0.2478,0.2501,0.2522,0,0,0,0,0,0.1757,0.1882,0.1849,0.1867,0.1951,0.2034,0.2044,0.2012,0.1947,0.2005,0.2003,0.1948,0.2118,0.2051,0.207,0.2154,0.2327,0.234,0.2353,0.2468,0.2497,0.2521,0,0,0,0,0,0,0.1878,0.1883,0.1846,0.198,0.2007,0.2016,0.2088,0.2044,0.2091,0.2078,0.2036,0.2042,0.216,0.2168,0.2093,0.2302,0.2212,0.2229,0.2292,0.232,0.2342,0.2336,0.1989,0,0,0,0,0,0.192,0.1987,0.1987,0.2105,0.212,0.2102,0.2137,0.211,0.2136,0.2148,0.2153,0.2182,0.2241,0.2281,0.2336,0.2479,0.2481,0.2546,0.2568,0.2586,0.2601,0.2674,0.2702,0.2402,0.2402,0.2402,0,0,0.2008,0.2019,0.2063,0.2129,0.2147,0.2216,0.2113,0.2191,0.2242,0.216,0.2263,0.2268,0.2297,0.2423,0.2479,0.2433,0.2684,0.2602,0.2617,0.2622,0.269,0.2719,0.2744,0.2411,0.2409,0.2408,0,0,0.2203,0.2219,0.2316,0.2336,0.2364,0.2351,0.2374,0.2389,0.2389,0.2492,0.2431,0.2491,0.2595,0.2617,0.2642,0.2843,0.2793,0.2862,0.2976,0.3048,0.3072,0.3092,0.3161,0.3187,0.2877,0.2877,0.2878,0,0.2308,0.241,0.2373,0.2454,0.2484,0.2412,0.251,0.2531,0.2576,0.2598,0.2546,0.2673,0.2688,0.2817,0.2865,0.2889,0.2913,0.2858,0.3071,0.3092,0.311,0.3176,0.3202,0.2885,0.2884,0.2884,0.2883,0,0.2537,0.2609,0.2684,0.2727,0.2766,0.2856,0.2831,0.2875,0.2844,0.2836,0.294,0.2955,0.301,0.3039,0.3011,0.3163,0.3134,0.3078,0.2985,0.3147,0.3208,0.3233,0.2897,0.2894,0.2892,0.289,0,0,0.2811,0.283,0.2858,0.2876,0.29,0.2954,0.304,0.3093,0.313,0.3163,0.3233,0.3322,0.3269,0.3297,0.327,0.3334,0.3488,0.3269,0.3269,0.3307,0.3654,0.3695,0.3725,0.3456,0.3461,0.3465,0.3651,0,0.3002,0.3148,0.3116,0.326,0.3324,0.3256,0.333,0.3353,0.3348,0.3401,0.3395,0.3458,0.3385,0.3401,0.3461,0.3457,0.3557,0.3443,0.3519,0.3522,0.3512,0.3757,0.38,0.3976,0.3675,0.3679,0.3682,0,0.3245,0.3285,0.3435,0.3446,0.3472,0.3539,0.3583,0.3636,0.366,0.3651,0.3682,0.3642,0.3726,0.3634,0.3748,0.3671,0.37,0.3703,0.3709,0.3713,0.3611,0.3766,0.4031,0.4057,0.3719,0.3716,0.3714,0,0.3425,0.3518,0.3618,0.3636,0.3652,0.3701,0.371,0.3728,0.3761,0.38,0.3821,0.387,0.3896,0.3935,0.3909,0.3844,0.4026,0.3933,0.402,0.4021,0.406,0.4058,0.4332,0.4083,0.4083,0.4082,0.4082,0,0.3641,0.3735,0.3699,0.3761,0.3864,0.3826,0.3928,0.3929,0.3946,0.4006,0.3951,0.4009,0.3972,0.4027,0.4007,0.4103,0.4116,0.411,0.4104,0.4114,0.4115,0.4131,0.4118,0.4089,0.4088,0.4086,0.4085,0,0.386,0.384,0.3945,0.3951,0.3955,0.403,0.4035,0.4092,0.4082,0.4159,0.4175,0.416,0.4221,0.4199,0.4265,0.4251,0.4372,0.4351,0.4364,0.4358,0.4445,0.4437,0.4739,0.4775,0.4505,0.4508,0.451,0,0.3998,0.4068,0.4081,0.4117,0.413,0.4189,0.4221,0.4186,0.4222,0.4253,0.4307,0.4363,0.4405,0.4506,0.4501,0.455,0.4528,0.463,0.4535,0.4542,0.4526,0.4522,0.4527,0.4649,0.4652,0.4655,0.4657,0,0.4244,0.423,0.4278,0.4323,0.4363,0.4397,0.4427,0.4459,0.4426,0.4469,0.453,0.4563,0.4629,0.4685,0.4728,0.4737,0.4691,0.4687,0.4709,0.472,0.4723,0.472,0.4413,0.468,0.4677,0.4676,0.4675,0.4674,0.4425,0.4483,0.45,0.4555,0.4573,0.4601,0.4654,0.465,0.47,0.475,0.4727,0.4797,0.4816,0.487,0.4886,0.4939,0.49,0.4933,0.4941,0.4949,0.4959,0.4716,0.4948,0.4947,0.4946,0.4946,0.4945,0,0.4666,0.4673,0.4724,0.4765,0.4808,0.4761,0.479,0.4829,0.4891,0.4913,0.4956,0.5025,0.5078,0.5076,0.5125,0.5168,0.5148,0.5182,0.5177,0.518,0.4993,0.4968,0.5197,0.5197,0.5197,0.5197,0.5197,0.5197,0.4796,0.489,0.4878,0.498,0.4987,0.5054,0.5074,0.5099,0.5116,0.5196,0.5239,0.5237,0.5249,0.5298,0.5344,0.5342,0.5361,0.5403,0.5393,0.5218,0.5193,0.5169,0.5145,0.5408,0.5408,0.5574,0.5576,0.5577]}]]